Location: Breungeshain
(50.5000°N, 9.2000°E)
Time: 14:29:09
(UTC+00:00)

ISS - Pass Details

Date: 23 May 2018
Orbit: 402 x 406 km, 51.6° (Epoch: 19 June)

Event Time Altitude Azimuth Distance (km) Brightness Sun altitude
Rises 00:08:25 0° 284° (WNW) 2,322 0.0 -18.2°
Reaches altitude 10° 00:10:30 10° 284° (WNW) 1,461 -1.0 -18.1°
Maximum altitude 00:13:46 86° 196° (SSW) 409 -4.0 -18.0°
Drops below altitude 10° 00:17:04 10° 107° (ESE) 1,470 -1.0 -17.9°
Sets 00:19:07 0° 107° (ESE) 2,314 0.0 -17.8°
